Location: *
(38.9555°S, 57.3572°E)
Time: 01:47:23
(UTC+00:00)

USA 215 - Pass Details

Date: 15 July 2020
Orbit: 1102 x 1106 km, 123.0° (Epoch: 31 July)

Event Time Altitude Azimuth Distance (km) Brightness Sun altitude
Exits shadow 15:48:28 12° 13° (NNE) 2,831 5.3 -30.8°
Maximum altitude 15:54:06 38° 307° (NW) 1,622 4.4 -31.9°
Drops below altitude 10° 16:00:11 10° 240° (WSW) 2,987 6.2 -33.0°
Sets 16:02:54 0° 232° (SW) 3,951 6.8 -33.6°
